time_stamp(utc),avg(mph),gust(mph),direction(deg),12m_air_temp(f),sonic_u(cm/s),sonic_v(cm/s),sonic_w(cm/s),pressure,2m_air_temp(f),pyranometer(W/m^2)
"2020-10-17 00:02:39+00",9.1,10.1,,51.2,-116,380,-1,1019.62,50.8,0
"2020-10-17 00:07:39+00",7.8,8.8,,51.1,-81,324,-1,1019.71,50.7,0
"2020-10-17 00:12:39+00",6.3,8.3,,51.1,-154,224,16,1019.7,50.6,0
"2020-10-17 00:17:39+00",7.7,8.7,,51.1,-67,320,1,1019.67,50.7,0
"2020-10-17 00:22:39+00",9.2,10.2,,51,-18,413,5,1019.2,50.7,0
"2020-10-17 00:27:39+00",11.7,12.7,,51,-15,512,7,1018.91,50.6,0
"2020-10-17 00:32:39+00",10.0,13.0,,51.2,-228,374,33,1019.34,50.7,0
"2020-10-17 00:37:39+00",8.8,9.8,,51.2,-25,382,6,1019.19,50.9,0
"2020-10-17 00:42:39+00",10.4,13.4,,51.2,-146,426,13,1019.24,50.8,0
"2020-10-17 00:47:39+00",13.0,14.0,,51.6,-193,523,1,1019.34,50.9,0
"2020-10-17 00:52:39+00",12.9,14.9,,51.7,-291,477,22,1019.53,51.2,0
"2020-10-17 00:57:39+00",13.0,14.0,,51.7,-362,433,36,1019.8,51.4,0
"2020-10-17 01:02:39+00",14.5,17.5,,51.5,-335,541,35,1019.34,51.3,0
"2020-10-17 01:07:39+00",13.3,15.3,,51.5,-255,522,31,1019.12,51.1,0
"2020-10-17 01:12:39+00",13.3,15.3,,51.5,-161,543,36,1019.16,51.3,0
"2020-10-17 01:17:39+00",15.3,17.3,,51.4,-306,600,31,1019.42,51.2,0
"2020-10-17 01:22:39+00",14.0,16.0,,51.5,-193,573,16,1019.32,51.2,0
"2020-10-17 01:27:39+00",13.8,17.8,,51.7,-281,538,35,1019.31,51.5,0
"2020-10-17 01:32:39+00",15.4,17.4,,51.8,-366,557,36,1019.26,51.5,0
"2020-10-17 01:37:39+00",14.8,16.8,,51.8,-258,578,30,1019.2,51.6,0
"2020-10-17 01:42:39+00",15.2,17.2,,51.7,-273,599,22,1019.23,51.5,0
"2020-10-17 01:47:39+00",14.8,16.8,,51.8,-164,628,8,1019.12,51.6,0
"2020-10-17 01:52:39+00",10.4,12.4,,52,-205,419,38,1019.27,51.6,0
"2020-10-17 01:57:39+00",13.2,14.2,,51.9,-141,562,15,1019.32,51.5,0
"2020-10-17 02:02:39+00",14.2,16.2,,52,-147,599,-6,1019.14,51.5,0
"2020-10-17 02:07:39+00",14.0,16.0,,51.9,-193,594,26,1019.24,51.5,0
"2020-10-17 02:12:39+00",13.6,15.6,,52.1,-199,571,-5,1019.23,51.6,0
"2020-10-17 02:17:39+00",13.2,15.2,,52.1,-162,551,16,1019.2,51.7,0
"2020-10-17 02:22:39+00",13.6,15.6,,52,-237,571,30,1019.22,51.7,0
"2020-10-17 02:27:39+00",14.4,16.4,,51.9,-248,573,7,1019.34,51.7,0
"2020-10-17 02:32:39+00",13.5,15.5,,51.8,-195,554,8,1019.43,51.6,0
"2020-10-17 02:37:39+00",13.1,15.1,,51.8,-296,483,23,1019.73,51.6,0
"2020-10-17 02:42:39+00",9.8,10.8,,51.9,-203,360,43,1019.93,51.6,0
"2020-10-17 02:47:39+00",12.2,14.2,,51.8,-216,478,25,1019.85,51.5,0
"2020-10-17 02:52:39+00",14.0,15.0,,51.7,-338,506,46,1019.94,51.5,0
"2020-10-17 02:57:39+00",11.7,13.7,,51.8,-221,473,23,1019.83,51.5,0
"2020-10-17 03:02:39+00",13.6,15.6,,51.7,-240,548,10,1019.84,51.4,0
"2020-10-17 03:07:39+00",11.7,13.7,,51.6,-161,482,10,1019.67,51.3,0
"2020-10-17 03:12:39+00",12.3,14.3,,51.7,-208,493,31,1019.58,51.4,0
"2020-10-17 03:17:39+00",14.6,16.6,,51.6,-197,607,5,1019.5,51.5,0
"2020-10-17 03:22:39+00",14.1,17.1,,51.5,-148,604,10,1019.29,51.4,0
"2020-10-17 03:27:39+00",14.5,17.5,,51.7,-120,613,8,1019.49,51.3,0
"2020-10-17 03:32:39+00",17.4,19.4,,51.7,-340,688,31,1019.82,51.4,0
"2020-10-17 03:37:39+00",15.6,17.6,,51.8,-337,562,21,1020.29,51.4,0
"2020-10-17 03:42:39+00",15.3,18.3,,51.6,-342,564,30,1020.23,51.3,0
"2020-10-17 03:47:39+00",16.0,20.0,,51.5,-293,633,42,1020.28,51.3,0
"2020-10-17 03:52:39+00",16.1,17.1,,51.5,-264,645,11,1020.81,51.3,0
"2020-10-17 03:57:39+00",14.1,16.1,,51.6,-193,574,27,1020.28,51.2,0
"2020-10-17 04:02:39+00",16.3,17.3,,51.4,-210,688,-1,1020.22,51.1,0
"2020-10-17 04:07:39+00",14.7,16.7,,51.4,-20,635,2,1020.07,51,0
"2020-10-17 04:12:39+00",17.3,19.3,,51.5,-41,745,10,1020,50.8,0
"2020-10-17 04:17:39+00",16.9,18.9,,51.6,-14,750,16,1019.68,50.8,0
"2020-10-17 04:22:39+00",13.3,15.3,,51.6,-99,578,18,1019.41,50.9,0
"2020-10-17 04:27:39+00",17.3,19.3,,51.4,-140,747,30,1018.95,50.9,0
"2020-10-17 04:32:39+00",17.4,20.4,,51.3,-120,765,14,1018.87,50.9,0
"2020-10-17 04:37:39+00",16.3,18.3,,51.2,-270,652,27,1019.27,50.9,0
"2020-10-17 04:42:39+00",13.5,16.5,,51,-175,535,0,1019.52,50.8,0
"2020-10-17 04:47:39+00",12.3,13.3,,50.9,-200,498,12,1019.74,50.6,0
"2020-10-17 04:52:39+00",12.7,14.7,,50.8,-189,545,21,1019.41,50.5,0
"2020-10-17 04:57:39+00",13.2,16.2,,50.7,-51,578,15,1019.24,50.4,0
"2020-10-17 05:02:39+00",14.3,16.3,,50.8,-121,611,20,1019.25,50.4,0
"2020-10-17 05:07:39+00",12.4,14.4,,50.8,-134,523,18,1019.31,50.4,0
"2020-10-17 05:12:39+00",14.9,16.9,,50.7,-116,637,2,1019.44,50.3,0
"2020-10-17 05:17:39+00",13.6,15.6,,50.7,-222,540,25,1019.38,50.2,0
"2020-10-17 05:22:39+00",16.1,19.1,,50.4,-299,634,27,1019.26,50.1,0
"2020-10-17 05:27:39+00",14.9,16.9,,50.4,-295,581,32,1019.32,49.9,0
"2020-10-17 05:32:39+00",13.7,16.7,,50.4,-291,534,26,1019.52,50,0
"2020-10-17 05:37:39+00",16.7,18.7,,50.3,-294,643,11,1019.53,49.9,0
"2020-10-17 05:42:39+00",15.6,17.6,,50.3,-309,593,21,1019.88,49.9,0
"2020-10-17 05:47:39+00",15.5,17.5,,50.3,-322,591,30,1020,49.8,0
"2020-10-17 05:52:39+00",14.8,18.8,,50.3,-70,661,22,1019.73,49.8,0
"2020-10-17 05:57:39+00",11.0,14.0,,50.2,-184,439,30,1020.11,49.8,0
"2020-10-17 06:02:39+00",14.0,18.0,,50.2,-309,538,39,1019.94,49.8,0
"2020-10-17 06:07:39+00",14.6,15.6,,50.2,-169,616,3,1019.88,49.7,0
"2020-10-17 06:12:39+00",12.4,14.4,,50.1,-149,515,23,1020.01,49.6,0
"2020-10-17 06:17:39+00",12.7,14.7,,50.2,40,557,16,1019.87,49.6,0
"2020-10-17 06:22:39+00",14.5,16.5,,50.2,-145,619,15,1019.75,49.6,0
"2020-10-17 06:27:39+00",14.9,16.9,,50.3,-330,552,47,1020.07,49.7,0
"2020-10-17 06:32:39+00",16.1,18.1,,50.1,-367,601,45,1019.81,49.7,0
"2020-10-17 06:37:39+00",16.2,17.2,,50,-335,613,32,1019.75,49.7,0
"2020-10-17 06:42:39+00",14.8,16.8,,49.9,-446,509,62,1020.05,49.5,0
"2020-10-17 06:47:39+00",15.4,18.4,,50,-394,524,36,1020.31,49.6,0
"2020-10-17 06:52:39+00",11.5,12.5,,49.9,-300,413,34,1020.29,49.5,0
"2020-10-17 06:57:39+00",13.8,15.8,,49.8,-357,512,42,1020.17,49.5,0
"2020-10-17 07:02:39+00",11.3,12.3,,49.8,-137,479,2,1020.06,49.2,0
"2020-10-17 07:07:39+00",11.3,15.3,,49.6,49,493,-11,1019.9,49.1,0
"2020-10-17 07:12:39+00",11.0,13.0,,49.6,-14,473,17,1019.91,49.1,0
"2020-10-17 07:17:39+00",14.3,17.3,,49.7,104,605,-6,1019.89,49,0
"2020-10-17 07:22:39+00",12.0,16.0,,49.7,128,505,9,1020.08,49.1,0
"2020-10-17 07:27:39+00",14.5,17.5,,49.8,213,585,-7,1020.07,49.1,0
"2020-10-17 07:32:39+00",12.5,14.5,,49.9,118,514,-6,1019.92,49.1,0
"2020-10-17 07:37:39+00",12.0,14.0,,49.9,195,479,-8,1020.02,49.3,0
"2020-10-17 07:42:39+00",10.6,12.6,,50,84,450,2,1020.14,49.1,0
"2020-10-17 07:47:39+00",13.8,15.8,,50.1,140,565,-15,1020.27,48.7,0
"2020-10-17 07:52:39+00",11.3,13.3,,50,-5,511,9,1020.33,48.8,0
"2020-10-17 07:57:39+00",14.8,16.8,,49.9,-33,657,-4,1020.53,48.6,0
"2020-10-17 08:02:39+00",13.1,16.1,,49.8,-85,571,12,1020.52,48.5,0
"2020-10-17 08:07:39+00",10.8,11.8,,49.7,-116,462,11,1020.62,48.5,0
"2020-10-17 08:12:39+00",11.8,15.8,,49.4,-219,466,13,1020.64,48.7,0
"2020-10-17 08:17:39+00",12.0,14.0,,49.1,-211,489,15,1020.74,48.6,0
"2020-10-17 08:22:39+00",10.5,12.5,,49.1,-161,419,30,1020.8,48.4,0
"2020-10-17 08:27:39+00",10.0,13.0,,49.1,-104,418,17,1020.99,48.3,0
"2020-10-17 08:32:39+00",11.0,14.0,,49.2,-185,451,18,1021.15,48.2,0
"2020-10-17 08:37:39+00",12.3,15.3,,49,-308,459,27,1021.42,48.2,0
"2020-10-17 08:42:39+00",12.9,14.9,,48.9,-420,387,37,1021.65,48.3,0
"2020-10-17 08:47:39+00",13.4,16.4,,49.2,-486,367,41,1021.62,48.7,0
"2020-10-17 08:52:39+00",14.9,16.9,,49.1,-516,408,30,1021.5,48.8,0
"2020-10-17 08:57:39+00",11.1,13.1,,49.1,-387,323,48,1021.43,48.7,0
"2020-10-17 09:02:39+00",14.9,19.9,,49.1,-504,432,37,1021.65,48.8,0
"2020-10-17 09:07:39+00",15.1,17.1,,49.2,-537,405,50,1021.63,48.5,0
"2020-10-17 09:12:39+00",15.2,17.2,,49.1,-560,387,49,1021.8,48.4,0
"2020-10-17 09:17:39+00",15.2,17.2,,49.1,-508,442,20,1022.02,48.4,0
"2020-10-17 09:22:39+00",15.1,18.1,,48.9,-454,484,25,1021.94,48.2,0
"2020-10-17 09:27:39+00",15.5,17.5,,48.9,-467,499,48,1021.98,48.2,0
"2020-10-17 09:32:39+00",16.9,19.9,,48.8,-561,492,47,1022.13,48.2,0
"2020-10-17 09:37:39+00",16.7,18.7,,48.6,-541,504,39,1022.28,48.1,0
"2020-10-17 09:42:39+00",13.4,15.4,,48.6,-501,343,43,1022.56,48.1,0
"2020-10-17 09:47:39+00",13.0,16.0,,48.6,-443,366,37,1022.64,48,0
"2020-10-17 09:52:39+00",12.7,16.7,,48.5,-471,348,52,1022.6,48,0
"2020-10-17 09:57:39+00",13.9,15.9,,48.5,-414,457,39,1022.61,47.9,0
"2020-10-17 10:02:39+00",15.0,17.0,,48.4,-539,426,37,1022.66,47.8,0
"2020-10-17 10:07:39+00",14.0,16.0,,48.2,-463,415,41,1022.61,47.8,0
"2020-10-17 10:12:39+00",14.3,16.3,,48.2,-453,437,40,1022.69,47.7,0
"2020-10-17 10:17:39+00",13.7,18.7,,48.1,-438,417,71,1022.76,47.6,0
"2020-10-17 10:22:39+00",15.2,17.2,,47.9,-463,510,59,1022.91,47.5,0
"2020-10-17 10:27:39+00",16.1,18.1,,47.8,-525,503,46,1022.96,47.3,0
"2020-10-17 10:32:39+00",15.0,19.0,,47.8,-520,464,57,1023.12,47.3,0
"2020-10-17 10:37:39+00",14.1,16.1,,47.7,-459,441,44,1023.13,47.2,0
"2020-10-17 10:42:39+00",15.1,18.1,,47.6,-511,469,55,1023.23,47.2,0
"2020-10-17 10:47:39+00",17.5,19.5,,47.5,-605,504,38,1023.3,47.1,0
"2020-10-17 10:52:39+00",17.0,19.0,,47.4,-533,529,14,1023.55,46.9,0
"2020-10-17 10:57:39+00",15.7,17.7,,47.3,-550,451,41,1023.63,46.9,0
"2020-10-17 11:02:39+00",16.6,19.6,,47.1,-554,507,50,1023.75,46.8,0
"2020-10-17 11:07:39+00",16.2,20.2,,47,-505,543,54,1023.74,46.7,0
"2020-10-17 11:12:39+00",16.5,19.5,,46.9,-524,528,38,1023.84,46.6,0
"2020-10-17 11:17:39+00",17.3,20.3,,46.7,-570,536,39,1023.98,46.4,0
"2020-10-17 11:22:39+00",14.1,17.1,,46.6,-424,476,55,1024.02,46.2,0
"2020-10-17 11:27:39+00",16.8,19.8,,46.5,-435,589,26,1024.2,46.1,0
"2020-10-17 11:32:39+00",15.7,20.7,,46.6,-476,513,43,1024.28,46.2,0
"2020-10-17 11:37:39+00",14.0,16.0,,46.5,-391,481,42,1024.39,46.1,0
"2020-10-17 11:42:39+00",14.6,17.6,,46.5,-424,485,53,1024.38,46.1,0
"2020-10-17 11:47:39+00",16.1,18.1,,46.1,-434,571,26,1024.39,46,0
"2020-10-17 11:52:39+00",13.9,16.9,,45.9,-356,494,52,1024.38,46,0
"2020-10-17 11:57:39+00",18.4,20.4,,45.7,-444,694,21,1024.25,45.9,0
"2020-10-17 12:02:39+00",14.7,18.7,,45.9,-302,577,33,1024.33,46.2,0
"2020-10-17 12:07:39+00",15.1,18.1,,46,-325,597,36,1024.53,46.5,0
"2020-10-17 12:12:39+00",15.3,18.3,,46,-307,593,11,1024.55,46.6,0
"2020-10-17 12:17:39+00",14.7,19.7,,46.1,-367,549,49,1024.68,46.8,0
"2020-10-17 12:22:39+00",18.4,20.4,,46.1,-438,697,17,1024.72,46.9,0
"2020-10-17 12:27:39+00",14.9,16.9,,46.3,-310,585,39,1024.8,47.2,0
"2020-10-17 12:32:39+00",19.6,23.6,,46.3,-344,805,28,1024.65,47.3,0
"2020-10-17 12:37:39+00",17.7,22.7,,46.4,-253,750,33,1024.25,47.6,0
"2020-10-17 12:42:39+00",19.2,23.2,,46.4,-297,809,14,1024.32,47.8,0
"2020-10-17 12:47:39+00",18.8,21.8,,46.6,-246,812,31,1024.59,48,0
"2020-10-17 12:52:39+00",20.9,23.9,,46.7,-333,879,15,1024.59,48.2,0
"2020-10-17 12:57:39+00",18.0,22.0,,46.8,-204,768,8,1024.86,48.6,0
"2020-10-17 13:02:39+00",17.9,22.9,,47,-252,759,21,1024.94,48.7,0
"2020-10-17 13:07:39+00",18.6,20.6,,47.1,-265,784,11,1024.83,49,0
"2020-10-17 13:12:39+00",17.0,19.0,,47.2,-164,733,13,1024.76,49.3,0
"2020-10-17 13:17:39+00",17.5,19.5,,47.3,-199,745,13,1025.23,49.5,0
"2020-10-17 13:22:39+00",17.3,19.3,,47.5,-108,757,5,1025.05,49.8,0
"2020-10-17 13:27:39+00",17.4,20.4,,47.7,-114,759,30,1025.15,50.3,0
"2020-10-17 13:32:39+00",16.7,19.7,,47.8,-231,711,29,1025.36,50.6,0
"2020-10-17 13:37:39+00",16.4,18.4,,47.9,-126,718,14,1025.26,50.9,0
"2020-10-17 13:42:39+00",16.1,19.1,,48.3,-128,700,0,1025.4,51.2,0
"2020-10-17 13:47:39+00",14.7,17.7,,48.4,-84,649,15,1025.51,51.5,0
"2020-10-17 13:52:39+00",14.6,16.6,,48.5,-109,644,23,1025.25,51.5,0
"2020-10-17 13:57:39+00",18.7,20.7,,48.6,-8,819,7,1025.17,51.5,0
"2020-10-17 14:02:39+00",18.1,22.1,,48.9,-2,804,9,1025.09,51.7,0
"2020-10-17 14:07:39+00",16.5,18.5,,49,-32,728,11,1025.11,51.5,0
"2020-10-17 14:12:39+00",16.7,18.7,,49.3,-93,742,18,1025.2,52.2,0
"2020-10-17 14:17:39+00",15.9,18.9,,49.6,6,689,16,1025.43,52.5,0
"2020-10-17 14:22:39+00",16.1,18.1,,49.8,16,710,-7,1025.6,52.7,0
"2020-10-17 14:27:39+00",11.9,12.9,,49.9,-25,520,4,1025.77,53.3,0
"2020-10-17 14:32:39+00",10.0,12.0,,50.2,21,432,2,1025.99,53.8,0
"2020-10-17 14:37:39+00",9.2,11.2,,50.5,-104,392,22,1026.19,54.2,0
"2020-10-17 14:42:39+00",9.5,10.5,,50.6,-36,415,6,1026.25,54.6,0
"2020-10-17 14:47:39+00",8.4,9.4,,50.7,-53,365,2,1026.32,54.7,0
"2020-10-17 14:52:39+00",11.5,12.5,,51,46,489,3,1026.25,55,0
"2020-10-17 14:57:39+00",10.6,12.6,,51.3,-215,416,34,1026.34,55.1,0
"2020-10-17 15:02:39+00",9.7,11.7,,51.5,-36,416,0,1026.55,55.5,0
"2020-10-17 15:07:39+00",7.2,9.2,,51.6,-113,281,7,1026.51,55.9,0
"2020-10-17 15:12:39+00",9.0,10.0,,52,-30,381,17,1026.62,55.7,0
"2020-10-17 15:17:39+00",8.3,10.3,,52.2,-167,311,8,1026.8,56,0
"2020-10-17 15:22:39+00",6.9,8.9,,52.3,-62,296,24,1026.89,56,0
"2020-10-17 15:27:39+00",8.3,10.3,,52.7,-130,325,10,1026.91,56.1,0
"2020-10-17 15:32:39+00",7.6,8.6,,52.8,-77,323,15,1026.99,56.4,0
"2020-10-17 15:37:39+00",7.3,9.3,,53.3,-132,270,50,1027.2,57,0
"2020-10-17 15:42:39+00",8.9,10.9,,53.2,-284,279,27,1027.19,57.4,0
"2020-10-17 15:47:39+00",10.1,11.1,,53.3,-296,331,15,1027.1,57.2,0
"2020-10-17 15:52:39+00",11.9,13.9,,53.3,-387,360,14,1027.01,56.7,0
"2020-10-17 15:57:39+00",11.0,12.0,,53.3,-219,424,-9,1026.86,56.6,0
"2020-10-17 16:02:39+00",13.1,16.1,,53.7,-195,544,11,1026.85,57.1,0
"2020-10-17 16:07:39+00",12.7,15.7,,53.7,-388,421,65,1026.74,56.8,0
"2020-10-17 16:12:39+00",12.7,14.7,,54,-372,420,26,1026.73,56.9,0
"2020-10-17 16:17:39+00",16.2,17.2,,53.8,-427,580,14,1026.68,56.6,0
"2020-10-17 16:22:39+00",15.6,17.6,,54.4,-157,676,17,1026.48,56.7,0
"2020-10-17 16:27:39+00",16.1,19.1,,54.4,-247,680,16,1025.99,57.1,0
"2020-10-17 16:32:39+00",13.4,16.4,,54.5,3,581,5,1025.9,57.4,0
"2020-10-17 16:37:39+00",17.7,20.7,,54.8,-116,789,22,1025.71,57.8,0
"2020-10-17 16:42:39+00",14.4,18.4,,54.9,-95,644,30,1025.62,58.1,0
"2020-10-17 16:47:39+00",12.7,15.7,,55.2,-143,552,30,1025.65,58.3,0
"2020-10-17 16:52:39+00",16.1,20.1,,55.4,-190,708,3,1025.6,58.3,0
"2020-10-17 16:57:39+00",14.7,16.7,,55.4,-269,602,20,1025.61,58.3,0
"2020-10-17 17:02:39+00",12.8,15.8,,55.6,-131,555,-2,1025.57,58.6,0
"2020-10-17 17:07:39+00",10.9,12.9,,55.8,-71,459,23,1025.52,59,0
"2020-10-17 17:12:39+00",10.2,11.2,,56.1,-132,435,26,1025.52,59.6,0
"2020-10-17 17:17:39+00",12.2,16.2,,56.3,-66,525,22,1025.61,60,0
"2020-10-17 17:22:39+00",14.4,15.4,,56.5,-371,518,23,1025.58,59.9,0
"2020-10-17 17:27:39+00",11.5,13.5,,56.6,-323,399,30,1025.6,59.6,0
"2020-10-17 17:32:39+00",12.0,13.0,,56.8,-264,452,5,1025.62,59.5,0
"2020-10-17 17:37:39+00",14.2,17.2,,57.4,-166,588,17,1025.58,59.9,0
"2020-10-17 17:42:39+00",13.7,18.7,,57.6,-316,530,67,1025.51,60.2,0
"2020-10-17 17:47:39+00",14.2,17.2,,57.6,-265,492,-39,1025.26,60.2,0
"2020-10-17 17:52:39+00",12.7,15.7,,57.4,-385,418,47,1025.31,60,0
"2020-10-17 17:57:39+00",11.5,14.5,,57.6,-241,433,25,1025.44,59.9,0
"2020-10-17 18:02:39+00",17.8,19.8,,57.5,-416,681,27,1025.45,59.9,0
"2020-10-17 18:07:39+00",12.8,15.8,,57.4,-341,465,25,1025.57,59.8,0
"2020-10-17 18:12:39+00",12.4,14.4,,57.6,-282,466,17,1025.59,60.1,0
"2020-10-17 18:17:39+00",8.9,11.9,,57.6,-187,360,25,1025.45,60.1,0
"2020-10-17 18:22:39+00",14.0,17.0,,57.9,-303,544,29,1025.34,60.5,0
"2020-10-17 18:27:39+00",14.9,15.9,,57.9,-186,646,25,1025.41,60.5,0
"2020-10-17 18:32:39+00",12.2,14.2,,58.3,-238,487,40,1025.62,60.7,0
"2020-10-17 18:37:39+00",14.8,16.8,,57.9,-143,645,-1,1025.56,60.8,0
"2020-10-17 18:42:39+00",12.2,14.2,,58.1,-35,543,26,1025.64,61.1,0
"2020-10-17 18:47:39+00",10.9,11.9,,57.8,-345,332,20,1025.49,61.1,0
"2020-10-17 18:52:39+00",13.5,16.5,,58.4,-341,481,40,1025.56,61.2,0
"2020-10-17 18:57:39+00",12.5,16.5,,58.3,-277,496,40,1025.61,61,0
"2020-10-17 19:02:39+00",11.3,12.3,,58.2,-282,421,29,1025.73,60.9,0
"2020-10-17 19:07:39+00",12.3,15.3,,58.5,-121,539,22,1025.82,61.3,0
"2020-10-17 19:12:39+00",11.0,13.0,,58.1,-252,413,16,1025.84,61.2,0
"2020-10-17 19:17:39+00",9.6,11.6,,58.3,-327,275,33,1025.84,61.3,0
"2020-10-17 19:22:39+00",12.2,13.2,,58.7,-304,455,26,1026,61.5,0
"2020-10-17 19:27:39+00",9.5,10.5,,58.5,-340,260,23,1026,61.6,0
"2020-10-17 19:32:39+00",11.0,12.0,,58.5,-413,282,32,1026.01,61.6,0
"2020-10-17 19:37:39+00",11.5,14.5,,58.5,-349,356,15,1026.06,61.6,0
"2020-10-17 19:42:39+00",9.8,11.8,,58.7,-334,301,13,1026.08,61.6,0
"2020-10-17 19:47:39+00",6.6,8.6,,58.5,-227,165,26,1026.1,61.5,0
"2020-10-17 19:52:39+00",8.0,9.0,,58.4,-261,235,12,1026.21,61.6,0
"2020-10-17 19:57:39+00",9.1,11.1,,58.6,-341,217,15,1026.16,61.7,0
"2020-10-17 20:02:39+00",11.0,12.0,,58.4,-264,405,8,1026.13,61.5,0
"2020-10-17 20:07:39+00",5.9,6.9,,58.6,-158,197,4,1026.17,61.5,0
"2020-10-17 20:12:39+00",12.0,13.0,,58.8,-422,362,47,1026.14,61.7,0
"2020-10-17 20:17:39+00",9.5,10.5,,58.7,-163,387,3,1026.25,61.6,0
"2020-10-17 20:22:39+00",7.8,8.8,,58.7,-218,257,-5,1026.33,61.7,0
"2020-10-17 20:27:39+00",9.6,10.6,,58.7,-372,217,19,1026.23,61.7,0
"2020-10-17 20:32:39+00",8.3,9.3,,58.8,-142,333,20,1026.31,61.6,0
"2020-10-17 20:37:39+00",8.2,10.2,,58.7,-64,353,12,1026.28,61.6,0
"2020-10-17 20:42:39+00",8.1,10.1,,58.6,-214,290,28,1026.29,61.6,0
"2020-10-17 20:47:39+00",7.5,8.5,,58.7,-140,284,0,1026.37,61.6,0
"2020-10-17 20:52:39+00",7.7,8.7,,58.7,-84,323,-20,1026.53,61.7,0
"2020-10-17 20:57:39+00",5.5,7.5,,58.8,-69,206,10,1026.57,61.8,0
"2020-10-17 21:02:39+00",5.8,6.8,,58.9,-43,237,24,1026.53,61.4,0
"2020-10-17 21:07:39+00",8.9,9.9,,58.6,-247,307,12,1026.56,61.3,0
"2020-10-17 21:12:39+00",5.7,6.7,,58.6,-144,195,15,1026.66,61.1,0
"2020-10-17 21:17:39+00",10.9,11.9,,58.4,-241,413,6,1026.57,61,0
"2020-10-17 21:22:39+00",7.6,8.6,,58.3,-166,287,21,1026.7,60.7,0
"2020-10-17 21:27:39+00",7.9,8.9,,58.2,-206,285,23,1026.84,60.5,0
"2020-10-17 21:32:39+00",6.5,7.5,,58.1,-166,230,14,1026.96,60.2,0
"2020-10-17 21:37:39+00",8.0,9.0,,58,-177,294,17,1027.03,59.8,0
"2020-10-17 21:42:39+00",7.1,8.1,,57.8,-150,268,13,1027.21,59.4,0
"2020-10-17 21:47:39+00",7.4,8.4,,57.7,-170,268,12,1027.33,59,0
"2020-10-17 21:52:39+00",7.2,8.2,,57.6,-177,257,7,1027.33,58.7,0
"2020-10-17 21:57:39+00",7.2,8.2,,57.6,-193,249,10,1027.43,58.3,0
"2020-10-17 22:02:39+00",7.1,8.1,,57.7,-174,258,13,1027.54,57.7,0
"2020-10-17 22:07:39+00",6.0,6.0,,57.6,-142,214,8,1027.67,57,0
"2020-10-17 22:12:39+00",5.5,6.5,,57.7,-144,187,7,1027.66,56.3,0
"2020-10-17 22:17:39+00",4.1,5.1,,57.6,-104,141,7,1027.75,55.7,0
"2020-10-17 22:22:39+00",4.7,4.7,,57.5,-123,157,6,1027.93,55.3,0
"2020-10-17 22:27:39+00",4.6,5.6,,57.5,-117,153,6,1027.9,54.7,0
"2020-10-17 22:32:39+00",3.9,3.9,,57.5,-64,145,-2,1027.99,54,0
"2020-10-17 22:37:39+00",4.1,5.1,,57.4,-60,162,-1,1028.06,53.9,0
"2020-10-17 22:42:39+00",4.8,4.8,,57.4,-76,187,-3,1028.09,53.8,0
"2020-10-17 22:47:39+00",5.0,5.0,,57.3,-67,201,-3,1028.15,53.6,0
"2020-10-17 22:52:39+00",4.3,4.3,,57.4,-50,172,-5,1028.23,53.5,0
"2020-10-17 22:57:39+00",5.0,5.0,,57.3,-82,194,1,1028.39,53.5,0
"2020-10-17 23:02:39+00",4.0,4.0,,57.3,-71,157,15,1028.41,53.3,0
"2020-10-17 23:07:39+00",4.2,5.2,,57.2,-68,163,3,1028.41,53.2,0
"2020-10-17 23:12:39+00",2.2,3.2,,57,-60,57,1,1028.51,53.1,0
"2020-10-17 23:17:39+00",2.5,2.5,,56.7,-74,75,-5,1028.45,53,0
"2020-10-17 23:22:39+00",2.8,3.8,,56.5,-70,92,0,1028.47,52.8,0
"2020-10-17 23:27:39+00",2.1,2.1,,56.5,-60,54,-4,1028.51,52.8,0
"2020-10-17 23:32:39+00",2.8,3.8,,56.4,-109,56,-3,1028.49,52.8,0
"2020-10-17 23:37:39+00",2.6,3.6,,56.2,-104,-24,0,1028.59,52.8,0
"2020-10-17 23:42:39+00",3.7,4.7,,55.7,-147,-11,16,1028.59,52.7,0
"2020-10-17 23:47:39+00",4.2,5.2,,55.6,-172,-39,18,1028.73,52.4,0
"2020-10-17 23:52:39+00",4.1,5.1,,56.3,-169,-34,2,1028.7,51.9,0
"2020-10-17 23:57:39+00",3.6,3.6,,56.5,-152,-10,0,1028.66,51.6,0
